Location: Chippewa Lake
(41.0698°N, 81.9010°W)
Time: 22:00:07
(UTC+00:00)

Cosmos 1437 Rocket - Pass Details

Date: 09 May 2021
Orbit: 501 x 565 km, 81.2° (Epoch: 17 June)

Event Time Altitude Azimuth Distance (km) Brightness Sun altitude
Rises 01:10:33 0° 170° (S) 2,611 5.9 -7.2°
Reaches altitude 10° 01:12:45 10° 161° (SSE) 1,740 4.9 -7.6°
Maximum altitude 01:16:17 37° 94° (E) 829 3.3 -8.2°
Drops below altitude 10° 01:19:55 10° 26° (NNE) 1,788 5.5 -8.8°
Sets 01:22:12 0° 18° (NNE) 2,695 6.5 -9.1°
